Time,TemperatureF,DewpointF,PressureIn,WindDirection,WindDirectionDegrees,WindSpeedMPH,WindSpeedGustMPH,Humidity,HourlyPrecipIn,Conditions,Clouds,dailyrainin,SoftwareType,DateUTC
2013-01-17 00:00:00,32.4,29.5,30.22,NW,326,1.0,2.0,89,0.00,,,-99.99,Weather View 32 v60,2013-01-17 08:00:00,
2013-01-17 00:05:00,32.3,29.4,30.22,NNW,329,1.0,2.0,89,0.00,,,-99.99,Weather View 32 v60,2013-01-17 08:05:00,
2013-01-17 00:10:00,32.1,29.2,30.22,NW,323,0.0,2.0,89,0.00,,,-99.99,Weather View 32 v60,2013-01-17 08:10:00,
2013-01-17 00:15:00,31.8,28.9,30.22,NNW,330,2.0,2.0,89,0.00,,,-99.99,Weather View 32 v60,2013-01-17 08:15:00,
2013-01-17 00:20:00,31.9,29.3,30.22,NNW,330,0.0,2.0,90,0.00,,,-99.99,Weather View 32 v60,2013-01-17 08:20:00,
2013-01-17 00:25:00,32.1,29.5,30.22,North,8,0.0,2.0,90,0.00,,,-99.99,Weather View 32 v60,2013-01-17 08:25:00,
2013-01-17 00:30:00,32.1,29.5,30.22,NNW,332,0.0,2.0,90,0.00,,,-99.99,Weather View 32 v60,2013-01-17 08:30:00,
2013-01-17 00:35:00,31.9,29.3,30.23,NNE,13,0.0,2.0,90,0.00,,,-99.99,Weather View 32 v60,2013-01-17 08:35:00,
2013-01-17 00:40:00,31.7,29.1,30.22,North,5,0.0,2.0,90,0.00,,,-99.99,Weather View 32 v60,2013-01-17 08:40:00,
2013-01-17 00:45:00,31.7,29.1,30.23,North,7,0.0,2.0,90,0.00,,,-99.99,Weather View 32 v60,2013-01-17 08:45:00,
2013-01-17 00:50:00,31.9,29.6,30.23,NNE,18,0.0,2.0,91,0.00,,,-99.99,Weather View 32 v60,2013-01-17 08:50:00,
2013-01-17 00:55:00,31.7,29.1,30.23,NNW,346,2.0,2.0,90,0.00,,,-99.99,Weather View 32 v60,2013-01-17 08:55:00,
2013-01-17 01:00:00,31.7,29.1,30.23,North,360,2.0,2.0,90,0.00,,,-99.99,Weather View 32 v60,2013-01-17 09:00:00,
2013-01-17 01:10:00,31.7,29.4,30.23,NNW,341,0.0,2.0,91,0.00,,,-99.99,Weather View 32 v60,2013-01-17 09:10:00,
2013-01-17 01:20:00,31.5,29.2,30.23,North,5,1.0,2.0,91,0.00,,,-99.99,Weather View 32 v60,2013-01-17 09:20:00,
2013-01-17 01:25:00,31.4,29.1,30.22,North,5,0.0,2.0,91,0.00,,,-99.99,Weather View 32 v60,2013-01-17 09:25:00,
2013-01-17 01:35:00,31.4,29.1,30.22,East,83,0.0,2.0,91,0.00,,,-99.99,Weather View 32 v60,2013-01-17 09:35:00,
2013-01-17 01:40:00,31.2,28.9,30.22,East,79,1.0,2.0,91,0.00,,,-99.99,Weather View 32 v60,2013-01-17 09:40:00,
2013-01-17 01:45:00,30.9,28.6,30.22,East,79,1.0,2.0,91,0.00,,,-99.99,Weather View 32 v60,2013-01-17 09:45:00,
2013-01-17 01:50:00,30.8,28.5,30.22,East,79,0.0,2.0,91,0.00,,,-99.99,Weather View 32 v60,2013-01-17 09:50:00,
2013-01-17 01:55:00,30.7,28.4,30.22,NW,307,2.0,2.0,91,0.00,,,-99.99,Weather View 32 v60,2013-01-17 09:55:00,
2013-01-17 02:00:00,30.8,28.5,30.22,NNW,340,2.0,3.0,91,0.00,,,-99.99,Weather View 32 v60,2013-01-17 10:00:00,
2013-01-17 02:07:00,31.7,29.4,30.23,NNE,17,1.0,2.0,91,0.00,,,-99.99,Weather View 32 v60,2013-01-17 10:07:00,
2013-01-17 02:10:00,31.1,28.8,30.22,NNW,335,2.0,3.0,91,0.00,,,-99.99,Weather View 32 v60,2013-01-17 10:10:00,
2013-01-17 02:15:00,31.2,29.1,30.22,NNW,327,1.0,3.0,92,0.00,,,-99.99,Weather View 32 v60,2013-01-17 10:15:00,
2013-01-17 02:17:00,31.5,29.2,30.23,NNW,340,1.0,2.0,91,0.00,,,-99.99,Weather View 32 v60,2013-01-17 10:17:00,
2013-01-17 02:20:00,31.4,29.3,30.21,WNW,297,2.0,3.0,92,0.00,,,-99.99,Weather View 32 v60,2013-01-17 10:20:00,
2013-01-17 02:25:00,31.3,29.2,30.22,NE,37,2.0,3.0,92,0.00,,,-99.99,Weather View 32 v60,2013-01-17 10:25:00,
2013-01-17 02:30:00,31.3,29.2,30.21,WNW,298,2.0,3.0,92,0.00,,,-99.99,Weather View 32 v60,2013-01-17 10:30:00,
2013-01-17 02:32:00,31.5,29.2,30.23,NNE,20,0.0,2.0,91,0.00,,,-99.99,Weather View 32 v60,2013-01-17 10:32:00,
2013-01-17 02:35:00,31.3,29.2,30.21,NNE,32,0.0,3.0,92,0.00,,,-99.99,Weather View 32 v60,2013-01-17 10:35:00,
2013-01-17 02:40:00,31.2,29.1,30.21,East,79,1.0,4.0,92,0.00,,,-99.99,Weather View 32 v60,2013-01-17 10:40:00,
2013-01-17 02:50:00,30.8,28.8,30.21,NE,50,1.0,4.0,92,0.00,,,-99.99,Weather View 32 v60,2013-01-17 10:50:00,
2013-01-17 02:55:00,30.6,28.6,30.21,North,8,0.0,4.0,92,0.00,,,-99.99,Weather View 32 v60,2013-01-17 10:55:00,
2013-01-17 03:00:00,30.5,28.5,30.21,WNW,287,2.0,4.0,92,0.00,,,-99.99,Weather View 32 v60,2013-01-17 11:00:00,
2013-01-17 03:05:00,30.3,28.3,30.21,NNE,21,1.0,4.0,92,0.00,,,-99.99,Weather View 32 v60,2013-01-17 11:05:00,
2013-01-17 03:35:00,29.9,28.1,30.21,SE,137,0.0,4.0,93,0.00,,,-99.99,Weather View 32 v60,2013-01-17 11:35:00,
2013-01-17 03:47:00,31.0,28.9,30.21,NE,37,0.0,4.0,92,0.00,,,-99.99,Weather View 32 v60,2013-01-17 11:47:00,
2013-01-17 03:55:00,29.1,27.3,30.20,East,95,1.0,3.0,93,0.00,,,-99.99,Weather View 32 v60,2013-01-17 11:55:00,
2013-01-17 04:12:00,30.2,28.2,30.21,WSW,250,0.0,4.0,92,0.00,,,-99.99,Weather View 32 v60,2013-01-17 12:12:00,
2013-01-17 04:15:00,28.9,27.1,30.20,NNW,329,1.0,3.0,93,0.00,,,-99.99,Weather View 32 v60,2013-01-17 12:15:00,
2013-01-17 04:17:00,30.1,28.3,30.21,WNW,298,1.0,4.0,93,0.00,,,-99.99,Weather View 32 v60,2013-01-17 12:17:00,
2013-01-17 04:20:00,28.9,27.1,30.20,NNW,337,1.0,3.0,93,0.00,,,-99.99,Weather View 32 v60,2013-01-17 12:20:00,
2013-01-17 04:22:00,30.1,28.3,30.21,North,7,0.0,4.0,93,0.00,,,-99.99,Weather View 32 v60,2013-01-17 12:22:00,
2013-01-17 04:27:00,30.3,28.5,30.21,ENE,67,3.0,4.0,93,0.00,,,-99.99,Weather View 32 v60,2013-01-17 12:27:00,
2013-01-17 04:32:00,30.1,28.3,30.21,ESE,113,2.0,4.0,93,0.00,,,-99.99,Weather View 32 v60,2013-01-17 12:32:00,
2013-01-17 04:35:00,28.9,27.1,30.20,NNW,341,0.0,2.0,93,0.00,,,-99.99,Weather View 32 v60,2013-01-17 12:35:00,
2013-01-17 04:40:00,28.9,27.1,30.20,NNE,20,1.0,2.0,93,0.00,,,-99.99,Weather View 32 v60,2013-01-17 12:40:00,
2013-01-17 04:42:00,29.6,27.6,30.21,East,83,1.0,3.0,92,0.00,,,-99.99,Weather View 32 v60,2013-01-17 12:42:00,
2013-01-17 04:47:00,29.4,27.6,30.21,East,82,1.0,3.0,93,0.00,,,-99.99,Weather View 32 v60,2013-01-17 12:47:00,
2013-01-17 04:50:00,28.9,27.1,30.20,NNW,336,0.0,3.0,93,0.00,,,-99.99,Weather View 32 v60,2013-01-17 12:50:00,
2013-01-17 04:52:00,29.2,27.4,30.21,NE,34,1.0,3.0,93,0.00,,,-99.99,Weather View 32 v60,2013-01-17 12:52:00,
2013-01-17 04:55:00,28.9,27.1,30.20,NNW,337,0.0,3.0,93,0.00,,,-99.99,Weather View 32 v60,2013-01-17 12:55:00,
2013-01-17 05:02:00,29.2,27.4,30.20,East,94,0.0,3.0,93,0.00,,,-99.99,Weather View 32 v60,2013-01-17 13:02:00,
2013-01-17 05:07:00,29.0,27.2,30.20,NE,46,1.0,3.0,93,0.00,,,-99.99,Weather View 32 v60,2013-01-17 13:07:00,
2013-01-17 05:12:00,28.9,27.1,30.20,North,11,0.0,3.0,93,0.00,,,-99.99,Weather View 32 v60,2013-01-17 13:12:00,
2013-01-17 05:25:00,28.7,27.2,30.20,NNW,332,0.0,3.0,94,0.00,,,-99.99,Weather View 32 v60,2013-01-17 13:25:00,
2013-01-17 05:27:00,28.9,27.1,30.20,NNW,341,1.0,3.0,93,0.00,,,-99.99,Weather View 32 v60,2013-01-17 13:27:00,
2013-01-17 05:32:00,28.8,27.0,30.20,NNW,341,0.0,2.0,93,0.00,,,-99.99,Weather View 32 v60,2013-01-17 13:32:00,
2013-01-17 05:40:00,28.7,27.2,30.19,NNW,332,0.0,3.0,94,0.00,,,-99.99,Weather View 32 v60,2013-01-17 13:40:00,
2013-01-17 05:47:00,28.9,27.1,30.20,NNE,31,0.0,3.0,93,0.00,,,-99.99,Weather View 32 v60,2013-01-17 13:47:00,
2013-01-17 06:02:00,28.9,27.1,30.20,North,8,0.0,3.0,93,0.00,,,-99.99,Weather View 32 v60,2013-01-17 14:02:00,
2013-01-17 06:07:00,28.8,27.0,30.20,North,8,0.0,3.0,93,0.00,,,-99.99,Weather View 32 v60,2013-01-17 14:07:00,
2013-01-17 06:17:00,28.7,26.9,30.20,NNW,335,0.0,3.0,93,0.00,,,-99.99,Weather View 32 v60,2013-01-17 14:17:00,
2013-01-17 06:20:00,28.0,26.5,30.20,North,11,2.0,2.0,94,0.00,,,-99.99,Weather View 32 v60,2013-01-17 14:20:00,
2013-01-17 06:22:00,28.6,26.8,30.20,NNW,334,0.0,3.0,93,0.00,,,-99.99,Weather View 32 v60,2013-01-17 14:22:00,
2013-01-17 06:30:00,27.9,26.4,30.20,NNE,12,0.0,2.0,94,0.00,,,-99.99,Weather View 32 v60,2013-01-17 14:30:00,
2013-01-17 06:32:00,28.9,27.4,30.19,NNW,332,0.0,3.0,94,0.00,,,-99.99,Weather View 32 v60,2013-01-17 14:32:00,
2013-01-17 06:37:00,28.8,27.3,30.19,NNW,332,0.0,3.0,94,0.00,,,-99.99,Weather View 32 v60,2013-01-17 14:37:00,
2013-01-17 06:45:00,28.2,26.7,30.20,East,94,2.0,2.0,94,0.00,,,-99.99,Weather View 32 v60,2013-01-17 14:45:00,
2013-01-17 06:47:00,28.8,27.3,30.19,NNW,332,1.0,2.0,94,0.00,,,-99.99,Weather View 32 v60,2013-01-17 14:47:00,
2013-01-17 06:50:00,28.5,27.0,30.20,East,87,0.0,2.0,94,0.00,,,-99.99,Weather View 32 v60,2013-01-17 14:50:00,
2013-01-17 06:52:00,28.9,27.4,30.19,NNW,333,1.0,2.0,94,0.00,,,-99.99,Weather View 32 v60,2013-01-17 14:52:00,
2013-01-17 06:55:00,29.3,28.0,30.20,East,87,0.0,2.0,95,0.00,,,-99.99,Weather View 32 v60,2013-01-17 14:55:00,
2013-01-17 06:57:00,28.9,27.4,30.19,NNW,344,0.0,2.0,94,0.00,,,-99.99,Weather View 32 v60,2013-01-17 14:57:00,
2013-01-17 07:00:00,30.1,28.8,30.20,East,87,0.0,2.0,95,0.00,,,-99.99,Weather View 32 v60,2013-01-17 15:00:00,
2013-01-17 07:02:00,28.8,27.3,30.19,NNW,333,0.0,2.0,94,0.00,,,-99.99,Weather View 32 v60,2013-01-17 15:02:00,
2013-01-17 07:05:00,30.3,28.8,30.20,ESE,115,1.0,2.0,94,0.00,,,-99.99,Weather View 32 v60,2013-01-17 15:05:00,
2013-01-17 07:07:00,28.7,27.2,30.19,NNW,333,0.0,2.0,94,0.00,,,-99.99,Weather View 32 v60,2013-01-17 15:07:00,
2013-01-17 07:12:00,28.5,27.0,30.20,NNW,327,0.0,2.0,94,0.00,,,-99.99,Weather View 32 v60,2013-01-17 15:12:00,
2013-01-17 07:15:00,30.9,29.4,30.21,SE,126,1.0,2.0,94,0.00,,,-99.99,Weather View 32 v60,2013-01-17 15:15:00,
2013-01-17 07:17:00,28.3,26.8,30.20,North,5,1.0,2.0,94,0.00,,,-99.99,Weather View 32 v60,2013-01-17 15:17:00,
2013-01-17 07:20:00,31.1,29.6,30.21,SE,129,0.0,2.0,94,0.00,,,-99.99,Weather View 32 v60,2013-01-17 15:20:00,
2013-01-17 07:27:00,28.0,26.5,30.20,NNE,12,2.0,2.0,94,0.00,,,-99.99,Weather View 32 v60,2013-01-17 15:27:00,
2013-01-17 07:30:00,32.8,31.5,30.21,NE,36,0.0,2.0,95,0.00,,,-99.99,Weather View 32 v60,2013-01-17 15:30:00,
2013-01-17 07:32:00,27.9,26.4,30.20,NNE,12,0.0,2.0,94,0.00,,,-99.99,Weather View 32 v60,2013-01-17 15:32:00,
2013-01-17 07:35:00,33.8,32.5,30.21,NNE,30,0.0,2.0,95,0.00,,,-99.99,Weather View 32 v60,2013-01-17 15:35:00,
2013-01-17 07:37:00,27.8,26.3,30.20,North,9,1.0,2.0,94,0.00,,,-99.99,Weather View 32 v60,2013-01-17 15:37:00,
2013-01-17 07:40:00,34.5,33.0,30.21,NNE,27,1.0,2.0,94,0.00,,,-99.99,Weather View 32 v60,2013-01-17 15:40:00,
2013-01-17 07:42:00,27.9,26.4,30.20,SE,130,0.0,2.0,94,0.00,,,-99.99,Weather View 32 v60,2013-01-17 15:42:00,
2013-01-17 07:45:00,34.9,33.3,30.21,NNE,28,0.0,2.0,94,0.00,,,-99.99,Weather View 32 v60,2013-01-17 15:45:00,
2013-01-17 07:50:00,35.6,33.8,30.22,NW,321,1.0,2.0,93,0.00,,,-99.99,Weather View 32 v60,2013-01-17 15:50:00,
2013-01-17 07:55:00,36.2,34.6,30.22,NW,313,0.0,2.0,94,0.00,,,-99.99,Weather View 32 v60,2013-01-17 15:55:00,
2013-01-17 08:00:00,36.8,35.2,30.22,NW,313,0.0,2.0,94,0.00,,,-99.99,Weather View 32 v60,2013-01-17 16:00:00,
2013-01-17 08:10:00,38.0,34.5,30.22,South,174,1.0,2.0,87,0.00,,,-99.99,Weather View 32 v60,2013-01-17 16:10:00,
2013-01-17 08:12:00,30.4,28.9,30.20,SE,131,1.0,2.0,94,0.00,,,-99.99,Weather View 32 v60,2013-01-17 16:12:00,
2013-01-17 08:20:00,38.2,33.8,30.22,SSE,160,1.0,3.0,84,0.00,,,-99.99,Weather View 32 v60,2013-01-17 16:20:00,
2013-01-17 08:27:00,31.7,30.2,30.21,SE,132,0.0,2.0,94,0.00,,,-99.99,Weather View 32 v60,2013-01-17 16:27:00,
2013-01-17 08:30:00,38.9,33.9,30.22,West,271,1.0,3.0,82,0.00,,,-99.99,Weather View 32 v60,2013-01-17 16:30:00,
2013-01-17 08:35:00,39.4,34.4,30.22,NNW,332,2.0,3.0,82,0.00,,,-99.99,Weather View 32 v60,2013-01-17 16:35:00,
2013-01-17 09:07:00,37.8,35.1,30.22,WSW,244,0.0,2.0,90,0.00,,,-99.99,Weather View 32 v60,2013-01-17 17:07:00,
2013-01-17 09:17:00,38.1,34.0,30.22,SSE,152,1.0,2.0,85,0.00,,,-99.99,Weather View 32 v60,2013-01-17 17:17:00,
2013-01-17 09:25:00,45.7,35.7,30.21,West,263,3.0,3.0,68,0.00,,,-99.99,Weather View 32 v60,2013-01-17 17:25:00,
2013-01-17 09:27:00,38.5,33.5,30.22,NW,306,2.0,3.0,82,0.00,,,-99.99,Weather View 32 v60,2013-01-17 17:27:00,
2013-01-17 09:35:00,47.4,36.6,30.20,WNW,301,2.0,3.0,66,0.00,,,-99.99,Weather View 32 v60,2013-01-17 17:35:00,
2013-01-17 09:42:00,40.4,35.0,30.22,NNW,346,1.0,3.0,81,0.00,,,-99.99,Weather View 32 v60,2013-01-17 17:42:00,
2013-01-17 09:52:00,42.5,35.8,30.22,West,267,2.0,3.0,77,0.00,,,-99.99,Weather View 32 v60,2013-01-17 17:52:00,
2013-01-17 10:02:00,43.7,35.9,30.22,North,357,2.0,3.0,74,0.00,,,-99.99,Weather View 32 v60,2013-01-17 18:02:00,
2013-01-17 10:07:00,45.2,36.7,30.22,NNE,27,1.0,3.0,72,0.00,,,-99.99,Weather View 32 v60,2013-01-17 18:07:00,
2013-01-17 10:12:00,45.5,35.9,30.22,SSE,166,1.0,3.0,69,0.00,,,-99.99,Weather View 32 v60,2013-01-17 18:12:00,
2013-01-17 10:17:00,45.4,35.8,30.22,NW,309,0.0,3.0,69,0.00,,,-99.99,Weather View 32 v60,2013-01-17 18:17:00,
2013-01-17 10:22:00,45.5,35.9,30.21,West,269,1.0,3.0,69,0.00,,,-99.99,Weather View 32 v60,2013-01-17 18:22:00,
2013-01-17 10:25:00,52.4,38.0,30.17,WNW,295,2.0,5.0,58,0.00,,,-99.99,Weather View 32 v60,2013-01-17 18:25:00,
2013-01-17 10:32:00,46.4,36.0,30.20,SSW,212,2.0,3.0,67,0.00,,,-99.99,Weather View 32 v60,2013-01-17 18:32:00,
2013-01-17 10:35:00,53.7,38.3,30.17,WNW,301,3.0,5.0,56,0.00,,,-99.99,Weather View 32 v60,2013-01-17 18:35:00,
2013-01-17 10:39:00,47.4,36.6,30.20,WNW,301,2.0,3.0,66,0.00,,,-99.99,Weather View 32 v60,2013-01-17 18:39:00,
2013-01-17 10:45:00,54.2,38.8,30.16,SSE,165,1.0,5.0,56,0.00,,,-99.99,Weather View 32 v60,2013-01-17 18:45:00,
2013-01-17 10:47:00,48.4,36.8,30.20,NW,315,2.0,3.0,64,0.00,,,-99.99,Weather View 32 v60,2013-01-17 18:47:00,
2013-01-17 10:50:00,54.8,38.4,30.16,West,278,2.0,5.0,54,0.00,,,-99.99,Weather View 32 v60,2013-01-17 18:50:00,
2013-01-17 10:52:00,48.5,36.9,30.19,WNW,285,2.0,4.0,64,0.00,,,-99.99,Weather View 32 v60,2013-01-17 18:52:00,
2013-01-17 10:57:00,49.5,37.4,30.19,SSE,156,2.0,4.0,63,0.00,,,-99.99,Weather View 32 v60,2013-01-17 18:57:00,
2013-01-17 11:02:00,49.5,37.4,30.19,WSW,257,1.0,5.0,63,0.00,,,-99.99,Weather View 32 v60,2013-01-17 19:02:00,
2013-01-17 11:07:00,48.8,36.3,30.19,SSW,208,3.0,5.0,62,0.00,,,-99.99,Weather View 32 v60,2013-01-17 19:07:00,
2013-01-17 11:10:00,57.5,37.9,30.14,NNE,18,1.0,4.0,48,0.00,,,-99.99,Weather View 32 v60,2013-01-17 19:10:00,
2013-01-17 11:17:00,51.2,37.8,30.18,West,266,2.0,5.0,60,0.00,,,-99.99,Weather View 32 v60,2013-01-17 19:17:00,
2013-01-17 11:22:00,52.2,38.7,30.18,WSW,238,1.0,5.0,60,0.00,,,-99.99,Weather View 32 v60,2013-01-17 19:22:00,
2013-01-17 11:32:00,53.0,38.6,30.17,WNW,283,0.0,5.0,58,0.00,,,-99.99,Weather View 32 v60,2013-01-17 19:32:00,
2013-01-17 11:35:00,56.7,37.7,30.13,South,173,3.0,7.0,49,0.00,,,-99.99,Weather View 32 v60,2013-01-17 19:35:00,
2013-01-17 11:42:00,54.4,38.5,30.16,West,265,2.0,5.0,55,0.00,,,-99.99,Weather View 32 v60,2013-01-17 19:42:00,
2013-01-17 11:50:00,58.3,37.0,30.12,SSW,208,5.0,7.0,45,0.00,,,-99.99,Weather View 32 v60,2013-01-17 19:50:00,
2013-01-17 11:55:00,58.0,37.3,30.12,SW,220,3.0,7.0,46,0.00,,,-99.99,Weather View 32 v60,2013-01-17 19:55:00,
2013-01-17 11:57:00,56.3,38.4,30.15,West,278,2.0,5.0,51,0.00,,,-99.99,Weather View 32 v60,2013-01-17 19:57:00,
2013-01-17 12:00:00,57.8,36.6,30.12,SSE,165,3.0,7.0,45,0.00,,,-99.99,Weather View 32 v60,2013-01-17 20:00:00,
2013-01-17 12:02:00,56.0,37.6,30.15,East,83,1.0,5.0,50,0.00,,,-99.99,Weather View 32 v60,2013-01-17 20:02:00,
2013-01-17 12:07:00,56.8,37.3,30.14,West,264,2.0,4.0,48,0.00,,,-99.99,Weather View 32 v60,2013-01-17 20:07:00,
2013-01-17 12:17:00,57.9,38.3,30.14,WNW,296,3.0,4.0,48,0.00,,,-99.99,Weather View 32 v60,2013-01-17 20:17:00,
2013-01-17 12:22:00,58.1,37.9,30.14,NNW,346,1.0,4.0,47,0.00,,,-99.99,Weather View 32 v60,2013-01-17 20:22:00,
2013-01-17 12:32:00,56.0,36.5,30.13,WSW,243,2.0,7.0,48,0.00,,,-99.99,Weather View 32 v60,2013-01-17 20:32:00,
2013-01-17 12:37:00,56.7,37.7,30.13,South,173,3.0,7.0,49,0.00,,,-99.99,Weather View 32 v60,2013-01-17 20:37:00,
2013-01-17 12:42:00,57.3,37.7,30.13,West,278,3.0,7.0,48,0.00,,,-99.99,Weather View 32 v60,2013-01-17 20:42:00,
2013-01-17 12:47:00,58.5,38.3,30.13,West,281,0.0,7.0,47,0.00,,,-99.99,Weather View 32 v60,2013-01-17 20:47:00,
2013-01-17 13:07:00,57.9,36.1,30.12,SSW,206,2.0,7.0,44,0.00,,,-99.99,Weather View 32 v60,2013-01-17 21:07:00,
2013-01-17 13:12:00,58.8,37.5,30.12,East,100,3.0,7.0,45,0.00,,,-99.99,Weather View 32 v60,2013-01-17 21:12:00,
2013-01-17 13:17:00,59.2,37.2,30.11,South,173,4.0,7.0,44,0.00,,,-99.99,Weather View 32 v60,2013-01-17 21:17:00,
2013-01-17 13:22:00,59.3,36.2,30.11,South,176,0.0,7.0,42,0.00,,,-99.99,Weather View 32 v60,2013-01-17 21:22:00,
2013-01-17 13:27:00,60.9,36.4,30.11,West,269,3.0,7.0,40,0.00,,,-99.99,Weather View 32 v60,2013-01-17 21:27:00,
2013-01-17 13:37:00,61.2,36.0,30.10,ESE,121,4.0,6.0,39,0.00,,,-99.99,Weather View 32 v60,2013-01-17 21:37:00,
2013-01-17 13:42:00,62.0,36.7,30.10,SW,217,2.0,6.0,39,0.00,,,-99.99,Weather View 32 v60,2013-01-17 21:42:00,
2013-01-17 13:47:00,62.0,35.4,30.10,SSW,205,5.0,6.0,37,0.00,,,-99.99,Weather View 32 v60,2013-01-17 21:47:00,
2013-01-17 13:52:00,61.9,36.0,30.10,SE,145,2.0,6.0,38,0.00,,,-99.99,Weather View 32 v60,2013-01-17 21:52:00,
2013-01-17 14:02:00,62.9,34.8,30.10,South,179,3.0,6.0,35,0.00,,,-99.99,Weather View 32 v60,2013-01-17 22:02:00,
2013-01-17 14:07:00,62.8,34.7,30.09,West,274,2.0,6.0,35,0.00,,,-99.99,Weather View 32 v60,2013-01-17 22:07:00,
2013-01-17 14:12:00,63.2,33.6,30.09,SSW,206,5.0,6.0,33,0.00,,,-99.99,Weather View 32 v60,2013-01-17 22:12:00,
2013-01-17 14:17:00,63.1,34.2,30.09,WSW,248,2.0,6.0,34,0.00,,,-99.99,Weather View 32 v60,2013-01-17 22:17:00,
2013-01-17 14:22:00,63.6,33.1,30.09,West,271,2.0,6.0,32,0.00,,,-99.99,Weather View 32 v60,2013-01-17 22:22:00,
2013-01-17 14:27:00,63.9,32.6,30.09,SE,143,3.0,6.0,31,0.00,,,-99.99,Weather View 32 v60,2013-01-17 22:27:00,
2013-01-17 14:32:00,63.7,33.2,30.09,South,175,2.0,6.0,32,0.00,,,-99.99,Weather View 32 v60,2013-01-17 22:32:00,
2013-01-17 14:37:00,64.0,32.7,30.09,SSE,160,4.0,6.0,31,0.00,,,-99.99,Weather View 32 v60,2013-01-17 22:37:00,
2013-01-17 14:42:00,63.2,32.0,30.09,ESE,123,1.0,6.0,31,0.00,,,-99.99,Weather View 32 v60,2013-01-17 22:42:00,
2013-01-17 14:47:00,64.2,32.9,30.08,SW,225,2.0,6.0,31,0.00,,,-99.99,Weather View 32 v60,2013-01-17 22:47:00,
2013-01-17 14:52:00,64.7,32.5,30.08,WSW,255,4.0,6.0,30,0.00,,,-99.99,Weather View 32 v60,2013-01-17 22:52:00,
2013-01-17 14:57:00,64.3,32.1,30.08,West,263,3.0,6.0,30,0.00,,,-99.99,Weather View 32 v60,2013-01-17 22:57:00,
2013-01-17 15:02:00,63.4,32.2,30.09,WSW,251,2.0,6.0,31,0.00,,,-99.99,Weather View 32 v60,2013-01-17 23:02:00,
2013-01-17 15:07:00,63.9,31.8,30.08,SSW,207,4.0,6.0,30,0.00,,,-99.99,Weather View 32 v60,2013-01-17 23:07:00,
2013-01-17 15:17:00,64.1,32.0,30.08,SW,218,4.0,6.0,30,0.00,,,-99.99,Weather View 32 v60,2013-01-17 23:17:00,
2013-01-17 15:22:00,63.7,31.6,30.08,SSE,163,1.0,6.0,30,0.00,,,-99.99,Weather View 32 v60,2013-01-17 23:22:00,
2013-01-17 15:27:00,64.2,32.0,30.08,SW,228,2.0,6.0,30,0.00,,,-99.99,Weather View 32 v60,2013-01-17 23:27:00,
2013-01-17 15:32:00,64.2,30.3,30.08,SSE,163,2.0,6.0,28,0.00,,,-99.99,Weather View 32 v60,2013-01-17 23:32:00,
2013-01-17 15:35:00,61.1,35.2,30.09,SSE,164,4.0,7.0,38,0.00,,,-99.99,Weather View 32 v60,2013-01-17 23:35:00,
2013-01-17 15:37:00,64.6,31.6,30.08,SSE,162,3.0,6.0,29,0.00,,,-99.99,Weather View 32 v60,2013-01-17 23:37:00,
2013-01-17 15:40:00,60.9,35.1,30.09,SW,215,2.0,7.0,38,0.00,,,-99.99,Weather View 32 v60,2013-01-17 23:40:00,
2013-01-17 15:42:00,64.2,32.9,30.08,SSE,166,4.0,6.0,31,0.00,,,-99.99,Weather View 32 v60,2013-01-17 23:42:00,
2013-01-17 15:45:00,60.5,35.4,30.09,SW,229,2.0,7.0,39,0.00,,,-99.99,Weather View 32 v60,2013-01-17 23:45:00,
2013-01-17 15:47:00,63.9,34.2,30.08,South,172,4.0,6.0,33,0.00,,,-99.99,Weather View 32 v60,2013-01-17 23:47:00,
2013-01-17 15:52:00,63.7,34.0,30.08,SSW,206,3.0,6.0,33,0.00,,,-99.99,Weather View 32 v60,2013-01-17 23:52:00,
2013-01-17 15:57:00,63.5,34.6,30.08,SSE,165,2.0,6.0,34,0.00,,,-99.99,Weather View 32 v60,2013-01-17 23:57:00,
2013-01-17 16:02:00,63.3,34.4,30.08,SW,219,3.0,6.0,34,0.00,,,-99.99,Weather View 32 v60,2013-01-18 00:02:00,
2013-01-17 16:07:00,63.0,34.9,30.08,SW,214,5.0,6.0,35,0.00,,,-99.99,Weather View 32 v60,2013-01-18 00:07:00,
2013-01-17 16:12:00,62.6,35.9,30.08,SW,216,4.0,6.0,37,0.00,,,-99.99,Weather View 32 v60,2013-01-18 00:12:00,
2013-01-17 16:15:00,57.7,37.6,30.10,SSW,206,2.0,7.0,47,0.00,,,-99.99,Weather View 32 v60,2013-01-18 00:15:00,
2013-01-17 16:17:00,62.2,36.2,30.08,SW,215,4.0,6.0,38,0.00,,,-99.99,Weather View 32 v60,2013-01-18 00:17:00,
2013-01-17 16:20:00,57.2,37.6,30.10,South,179,1.0,7.0,48,0.00,,,-99.99,Weather View 32 v60,2013-01-18 00:20:00,
2013-01-17 16:22:00,62.0,36.7,30.09,South,172,4.0,6.0,39,0.00,,,-99.99,Weather View 32 v60,2013-01-18 00:22:00,
2013-01-17 16:25:00,56.6,38.1,30.10,SSE,158,1.0,7.0,50,0.00,,,-99.99,Weather View 32 v60,2013-01-18 00:25:00,
2013-01-17 16:32:00,61.3,36.1,30.09,SSE,162,4.0,7.0,39,0.00,,,-99.99,Weather View 32 v60,2013-01-18 00:32:00,
2013-01-17 16:37:00,61.1,35.2,30.09,SSE,164,4.0,7.0,38,0.00,,,-99.99,Weather View 32 v60,2013-01-18 00:37:00,
2013-01-17 16:52:00,60.0,35.6,30.09,SSW,203,3.0,7.0,40,0.00,,,-99.99,Weather View 32 v60,2013-01-18 00:52:00,
2013-01-17 16:55:00,51.6,37.3,30.10,ENE,67,1.0,5.0,58,0.00,,,-99.99,Weather View 32 v60,2013-01-18 00:55:00,
2013-01-17 16:57:00,59.8,36.0,30.09,South,173,2.0,7.0,41,0.00,,,-99.99,Weather View 32 v60,2013-01-18 00:57:00,
2013-01-17 17:02:00,59.4,36.2,30.09,SSE,158,1.0,7.0,42,0.00,,,-99.99,Weather View 32 v60,2013-01-18 01:02:00,
2013-01-17 17:07:00,58.8,36.3,30.09,SSE,154,1.0,7.0,43,0.00,,,-99.99,Weather View 32 v60,2013-01-18 01:07:00,
2013-01-17 17:12:00,58.1,36.8,30.09,SSW,204,3.0,7.0,45,0.00,,,-99.99,Weather View 32 v60,2013-01-18 01:12:00,
2013-01-17 17:25:00,48.1,36.9,30.10,ENE,68,3.0,4.0,65,0.00,,,-99.99,Weather View 32 v60,2013-01-18 01:25:00,
2013-01-17 17:32:00,56.3,37.9,30.10,SSE,149,2.0,7.0,50,0.00,,,-99.99,Weather View 32 v60,2013-01-18 01:32:00,
2013-01-17 17:35:00,47.6,36.8,30.10,NE,45,1.0,5.0,66,0.00,,,-99.99,Weather View 32 v60,2013-01-18 01:35:00,
2013-01-17 17:37:00,55.8,37.9,30.10,East,101,2.0,7.0,51,0.00,,,-99.99,Weather View 32 v60,2013-01-18 01:37:00,
2013-01-17 17:40:00,47.1,36.7,30.10,NE,47,2.0,5.0,67,0.00,,,-99.99,Weather View 32 v60,2013-01-18 01:40:00,
2013-01-17 17:43:00,54.8,37.5,30.10,ENE,77,2.0,5.0,52,0.00,,,-99.99,Weather View 32 v60,2013-01-18 01:43:00,
2013-01-17 17:52:00,52.7,37.4,30.10,NE,50,3.0,5.0,56,0.00,,,-99.99,Weather View 32 v60,2013-01-18 01:52:00,
2013-01-17 18:02:00,50.9,37.5,30.10,East,90,1.0,5.0,60,0.00,,,-99.99,Weather View 32 v60,2013-01-18 02:02:00,
2013-01-17 18:07:00,50.2,37.2,30.10,NE,55,2.0,5.0,61,0.00,,,-99.99,Weather View 32 v60,2013-01-18 02:07:00,
2013-01-17 18:12:00,49.6,37.1,30.10,ENE,65,2.0,5.0,62,0.00,,,-99.99,Weather View 32 v60,2013-01-18 02:12:00,
2013-01-17 18:17:00,49.0,36.9,30.10,ENE,73,2.0,4.0,63,0.00,,,-99.99,Weather View 32 v60,2013-01-18 02:17:00,
2013-01-17 18:22:00,48.6,37.0,30.10,ENE,70,2.0,4.0,64,0.00,,,-99.99,Weather View 32 v60,2013-01-18 02:22:00,
2013-01-17 18:30:00,44.0,36.6,30.11,East,92,0.0,5.0,75,0.00,,,-99.99,Weather View 32 v60,2013-01-18 02:30:00,
2013-01-17 18:32:00,47.8,37.0,30.10,ENE,71,4.0,5.0,66,0.00,,,-99.99,Weather View 32 v60,2013-01-18 02:32:00,
2013-01-17 18:42:00,47.1,36.7,30.10,NE,47,2.0,5.0,67,0.00,,,-99.99,Weather View 32 v60,2013-01-18 02:42:00,
2013-01-17 18:45:00,43.2,36.1,30.11,East,93,0.0,3.0,76,0.00,,,-99.99,Weather View 32 v60,2013-01-18 02:45:00,
2013-01-17 18:47:00,46.6,36.6,30.10,ENE,57,2.0,5.0,68,0.00,,,-99.99,Weather View 32 v60,2013-01-18 02:47:00,
2013-01-17 18:52:00,46.2,36.6,30.10,NE,55,2.0,5.0,69,0.00,,,-99.99,Weather View 32 v60,2013-01-18 02:52:00,
2013-01-17 18:55:00,42.6,36.2,30.11,East,93,0.0,2.0,78,0.00,,,-99.99,Weather View 32 v60,2013-01-18 02:55:00,
2013-01-17 19:02:00,45.5,36.3,30.10,NE,40,0.0,5.0,70,0.00,,,-99.99,Weather View 32 v60,2013-01-18 03:02:00,
2013-01-17 19:05:00,41.9,35.5,30.11,NE,45,0.0,2.0,78,0.00,,,-99.99,Weather View 32 v60,2013-01-18 03:05:00,
2013-01-17 19:07:00,45.1,36.2,30.11,NNE,33,1.0,5.0,71,0.00,,,-99.99,Weather View 32 v60,2013-01-18 03:07:00,
2013-01-17 19:10:00,41.6,35.6,30.11,NNE,32,1.0,2.0,79,0.00,,,-99.99,Weather View 32 v60,2013-01-18 03:10:00,
2013-01-17 19:15:00,41.4,35.4,30.11,NE,51,2.0,2.0,79,0.00,,,-99.99,Weather View 32 v60,2013-01-18 03:15:00,
2013-01-17 19:17:00,44.4,36.3,30.11,NNE,32,0.0,5.0,73,0.00,,,-99.99,Weather View 32 v60,2013-01-18 03:17:00,
2013-01-17 19:22:00,44.2,36.4,30.11,NNE,33,0.0,5.0,74,0.00,,,-99.99,Weather View 32 v60,2013-01-18 03:22:00,
2013-01-17 19:25:00,41.2,35.5,30.11,NNE,31,0.0,2.0,80,0.00,,,-99.99,Weather View 32 v60,2013-01-18 03:25:00,
2013-01-17 19:27:00,44.0,36.2,30.11,NNE,33,0.0,5.0,74,0.00,,,-99.99,Weather View 32 v60,2013-01-18 03:27:00,
2013-01-17 19:37:00,43.9,36.5,30.11,East,101,0.0,4.0,75,0.00,,,-99.99,Weather View 32 v60,2013-01-18 03:37:00,
2013-01-17 19:40:00,40.8,35.4,30.11,NE,44,1.0,4.0,81,0.00,,,-99.99,Weather View 32 v60,2013-01-18 03:40:00,
2013-01-17 19:42:00,43.6,36.2,30.11,East,93,0.0,3.0,75,0.00,,,-99.99,Weather View 32 v60,2013-01-18 03:42:00,
2013-01-17 19:45:00,40.4,35.0,30.11,NE,44,0.0,4.0,81,0.00,,,-99.99,Weather View 32 v60,2013-01-18 03:45:00,
2013-01-17 19:52:00,42.8,35.8,30.11,East,93,0.0,3.0,76,0.00,,,-99.99,Weather View 32 v60,2013-01-18 03:52:00,
2013-01-17 20:02:00,42.3,35.9,30.11,NE,45,0.0,2.0,78,0.00,,,-99.99,Weather View 32 v60,2013-01-18 04:02:00,
2013-01-17 20:05:00,39.4,34.7,30.11,NW,318,0.0,4.0,83,0.00,,,-99.99,Weather View 32 v60,2013-01-18 04:05:00,
2013-01-17 20:10:00,39.4,34.7,30.11,NNW,342,2.0,4.0,83,0.00,,,-99.99,Weather View 32 v60,2013-01-18 04:10:00,
2013-01-17 20:15:00,39.4,34.7,30.11,NNW,337,0.0,4.0,83,0.00,,,-99.99,Weather View 32 v60,2013-01-18 04:15:00,
2013-01-17 20:20:00,39.2,34.8,30.11,NNW,335,1.0,4.0,84,0.00,,,-99.99,Weather View 32 v60,2013-01-18 04:20:00,
2013-01-17 20:22:00,41.3,35.6,30.11,ENE,73,1.0,2.0,80,0.00,,,-99.99,Weather View 32 v60,2013-01-18 04:22:00,
2013-01-17 20:25:00,39.1,34.7,30.11,NNE,16,0.0,4.0,84,0.00,,,-99.99,Weather View 32 v60,2013-01-18 04:25:00,
2013-01-17 20:30:00,38.9,34.5,30.11,NNE,16,0.0,4.0,84,0.00,,,-99.99,Weather View 32 v60,2013-01-18 04:30:00,
2013-01-17 20:32:00,41.1,35.7,30.11,ENE,62,2.0,2.0,81,0.00,,,-99.99,Weather View 32 v60,2013-01-18 04:32:00,
2013-01-17 20:35:00,38.5,34.1,30.11,NNE,16,0.0,4.0,84,0.00,,,-99.99,Weather View 32 v60,2013-01-18 04:35:00,
2013-01-17 20:37:00,41.2,35.8,30.11,NE,55,3.0,4.0,81,0.00,,,-99.99,Weather View 32 v60,2013-01-18 04:37:00,
2013-01-17 20:40:00,38.3,34.2,30.11,NW,317,1.0,3.0,85,0.00,,,-99.99,Weather View 32 v60,2013-01-18 04:40:00,
2013-01-17 20:42:00,40.8,35.4,30.11,NE,44,1.0,4.0,81,0.00,,,-99.99,Weather View 32 v60,2013-01-18 04:42:00,
2013-01-17 20:45:00,38.5,34.4,30.11,NW,315,1.0,3.0,85,0.00,,,-99.99,Weather View 32 v60,2013-01-18 04:45:00,
2013-01-17 20:50:00,38.4,34.3,30.11,WNW,296,0.0,3.0,85,0.00,,,-99.99,Weather View 32 v60,2013-01-18 04:50:00,
2013-01-17 20:52:00,40.0,34.9,30.11,NNE,22,0.0,4.0,82,0.00,,,-99.99,Weather View 32 v60,2013-01-18 04:52:00,
2013-01-17 20:55:00,38.2,34.1,30.11,WNW,296,0.0,3.0,85,0.00,,,-99.99,Weather View 32 v60,2013-01-18 04:55:00,
2013-01-17 20:57:00,39.8,34.7,30.11,North,356,0.0,4.0,82,0.00,,,-99.99,Weather View 32 v60,2013-01-18 04:57:00,
2013-01-17 21:00:00,38.3,34.5,30.11,WNW,296,0.0,3.0,86,0.00,,,-99.99,Weather View 32 v60,2013-01-18 05:00:00,
2013-01-17 21:05:00,38.4,34.6,30.12,WNW,293,0.0,3.0,86,0.00,,,-99.99,Weather View 32 v60,2013-01-18 05:05:00,
2013-01-17 21:10:00,38.3,34.5,30.11,WNW,293,1.0,3.0,86,0.00,,,-99.99,Weather View 32 v60,2013-01-18 05:10:00,
2013-01-17 21:15:00,38.3,34.5,30.12,WNW,303,0.0,3.0,86,0.00,,,-99.99,Weather View 32 v60,2013-01-18 05:15:00,
2013-01-17 21:20:00,38.3,34.5,30.12,WNW,291,0.0,3.0,86,0.00,,,-99.99,Weather View 32 v60,2013-01-18 05:20:00,
2013-01-17 21:25:00,38.3,34.5,30.12,SE,140,1.0,3.0,86,0.00,,,-99.99,Weather View 32 v60,2013-01-18 05:25:00,
2013-01-17 21:30:00,38.0,34.2,30.12,SE,140,0.0,3.0,86,0.00,,,-99.99,Weather View 32 v60,2013-01-18 05:30:00,
2013-01-17 21:35:00,37.7,33.9,30.12,NNW,335,0.0,3.0,86,0.00,,,-99.99,Weather View 32 v60,2013-01-18 05:35:00,
2013-01-17 21:40:00,37.6,33.8,30.12,NNW,336,0.0,3.0,86,0.00,,,-99.99,Weather View 32 v60,2013-01-18 05:40:00,
2013-01-17 21:45:00,37.7,34.2,30.12,NNE,30,2.0,3.0,87,0.00,,,-99.99,Weather View 32 v60,2013-01-18 05:45:00,
2013-01-17 21:50:00,37.8,34.3,30.12,NE,55,1.0,3.0,87,0.00,,,-99.99,Weather View 32 v60,2013-01-18 05:50:00,
2013-01-17 21:55:00,37.7,34.2,30.12,East,101,0.0,3.0,87,0.00,,,-99.99,Weather View 32 v60,2013-01-18 05:55:00,
2013-01-17 22:00:00,37.2,33.7,30.12,NE,40,0.0,3.0,87,0.00,,,-99.99,Weather View 32 v60,2013-01-18 06:00:00,
2013-01-17 22:05:00,36.8,33.3,30.12,ENE,62,0.0,3.0,87,0.00,,,-99.99,Weather View 32 v60,2013-01-18 06:05:00,
2013-01-17 22:10:00,36.5,33.0,30.12,ENE,62,0.0,3.0,87,0.00,,,-99.99,Weather View 32 v60,2013-01-18 06:10:00,
2013-01-17 22:15:00,36.1,32.6,30.13,ENE,62,0.0,3.0,87,0.00,,,-99.99,Weather View 32 v60,2013-01-18 06:15:00,
2013-01-17 22:20:00,35.8,32.6,30.13,NNW,344,0.0,3.0,88,0.00,,,-99.99,Weather View 32 v60,2013-01-18 06:20:00,
2013-01-17 22:25:00,35.5,32.3,30.13,NNW,344,1.0,3.0,88,0.00,,,-99.99,Weather View 32 v60,2013-01-18 06:25:00,
2013-01-17 22:30:00,35.4,32.2,30.13,NNE,19,1.0,3.0,88,0.00,,,-99.99,Weather View 32 v60,2013-01-18 06:30:00,
2013-01-17 22:35:00,35.2,32.0,30.13,NNE,18,0.0,2.0,88,0.00,,,-99.99,Weather View 32 v60,2013-01-18 06:35:00,
2013-01-17 22:40:00,34.9,31.7,30.13,NNW,332,0.0,2.0,88,0.00,,,-99.99,Weather View 32 v60,2013-01-18 06:40:00,
2013-01-17 22:45:00,34.8,31.9,30.13,NNW,332,0.0,2.0,89,0.00,,,-99.99,Weather View 32 v60,2013-01-18 06:45:00,
2013-01-17 22:50:00,34.7,31.8,30.13,NNW,332,0.0,2.0,89,0.00,,,-99.99,Weather View 32 v60,2013-01-18 06:50:00,
2013-01-17 22:55:00,34.6,31.7,30.13,NNW,332,0.0,2.0,89,0.00,,,-99.99,Weather View 32 v60,2013-01-18 06:55:00,
2013-01-17 23:00:00,34.6,31.7,30.13,NNW,332,0.0,2.0,89,0.00,,,-99.99,Weather View 32 v60,2013-01-18 07:00:00,
2013-01-17 23:05:00,34.6,31.7,30.13,NNE,24,0.0,2.0,89,0.00,,,-99.99,Weather View 32 v60,2013-01-18 07:05:00,
2013-01-17 23:10:00,34.8,32.2,30.13,ENE,78,2.0,2.0,90,0.00,,,-99.99,Weather View 32 v60,2013-01-18 07:10:00,
2013-01-17 23:15:00,34.9,32.3,30.13,ENE,75,1.0,3.0,90,0.00,,,-99.99,Weather View 32 v60,2013-01-18 07:15:00,
2013-01-17 23:20:00,34.7,31.8,30.13,ENE,70,0.0,3.0,89,0.00,,,-99.99,Weather View 32 v60,2013-01-18 07:20:00,
2013-01-17 23:25:00,34.3,31.4,30.13,ENE,70,0.0,3.0,89,0.00,,,-99.99,Weather View 32 v60,2013-01-18 07:25:00,
2013-01-17 23:30:00,34.0,31.4,30.13,ENE,70,0.0,3.0,90,0.00,,,-99.99,Weather View 32 v60,2013-01-18 07:30:00,
2013-01-17 23:35:00,33.8,31.2,30.13,NNE,14,0.0,3.0,90,0.00,,,-99.99,Weather View 32 v60,2013-01-18 07:35:00,
2013-01-17 23:40:00,33.8,31.2,30.13,NNE,14,0.0,3.0,90,0.00,,,-99.99,Weather View 32 v60,2013-01-18 07:40:00,
2013-01-17 23:45:00,33.8,31.2,30.14,ENE,74,1.0,3.0,90,0.00,,,-99.99,Weather View 32 v60,2013-01-18 07:45:00,
2013-01-17 23:50:00,33.6,31.0,30.14,ESE,117,0.0,3.0,90,0.00,,,-99.99,Weather View 32 v60,2013-01-18 07:50:00,
2013-01-17 23:55:00,33.3,30.7,30.13,ESE,117,0.0,3.0,90,0.00,,,-99.99,Weather View 32 v60,2013-01-18 07:55:00,